Weather History for Tonopah, NV

Change the Weather History Date:

Thursday, March 21, 2013

  Actual Average Record
Temperature  
Mean Temperature 47 °F 44 °F  
Max Temperature 58 °F 58 °F 79 °F (2004)
Min Temperature 35 °F 30 °F 11 °F (2006)
Degree Days  
Heating Degree Days 18 21  
Month to date heating degree days 359 483  
Since 1 July heating degree days 4193 4525  
Cooling Degree Days 0 0  
Month to date cooling degree days 0 0  
Year to date cooling degree days 0 0  
Moisture  
Dew Point 12 °F    
Average Humidity 31    
Maximum Humidity 52    
Minimum Humidity 10    
Precipitation  
Precipitation 0.00 in 0.02 in 0.32 in (1995)
Month to date precipitation 0.03 0.42  
Year to date precipitation 0.52 1.43  
Sea Level Pressure  
Sea Level Pressure 29.88 in    
Wind  
Wind Speed 16 mph (NNW)    
Max Wind Speed 29 mph    
Max Gust Speed 37 mph    
Visibility 10 miles    
Events      
T = Trace of Precipitation, MM = Missing Value Source: NWS Daily Summary

Daily Weather History Graph

Daily Weather History Graph

Search for Another Location

Airport:

Trip Planner

Search our weather history database for the weather conditions in past years. The results will help you decide how hot, cold, wet, or windy it might be!

Date:

Astronomy

Mar. 21, 2013 Rise Set
Actual Time 6:49 AM PDT 7:01 PM PDT
Civil Twilight 6:23 AM PDT 7:27 PM PDT
Nautical Twilight 5:52 AM PDT 7:58 PM PDT
Astronomical Twilight 5:21 AM PDT 8:29 PM PDT
Moon 1:40 PM PDT (3/21) 3:10 AM PDT (3/21)
Length of Visible Light 13h 04m
Length of Day
12h 11m
Waxing Gibbous, 69% of the Moon is Illuminated
Mar 21
Waxing Gibbous
Mar 27
Full
Apr 2
Last Quarter
Apr 10
New
Apr 18
First Quarter

Hourly Weather History & Observations

Time (PDT) Temp. Windchill Dew Point Humidity Pressure Visibility Wind Dir Wind Speed Gust Speed Precip Events Conditions
12:56 AM 41.0 °F 39.0 °F 19.9 °F 43% 29.84 in 10.0 mi Variable 3.5 mph - N/A   Clear
1:56 AM 42.1 °F 37.1 °F 21.0 °F 43% 29.85 in 10.0 mi NE 8.1 mph - N/A   Clear
2:56 AM 39.9 °F 34.5 °F 21.0 °F 47% 29.86 in 10.0 mi North 8.1 mph - N/A   Clear
3:56 AM 39.0 °F 35.7 °F 19.9 °F 46% 29.86 in 10.0 mi North 4.6 mph - N/A   Clear
4:56 AM 37.0 °F 31.0 °F 19.0 °F 48% 29.88 in 10.0 mi North 8.1 mph - N/A   Clear
5:56 AM 39.0 °F 31.4 °F 19.9 °F 46% 29.89 in 10.0 mi NNE 12.7 mph - N/A   Clear
6:56 AM 37.0 °F 29.8 °F 21.0 °F 52% 29.91 in 10.0 mi NNW 10.4 mph - N/A   Clear
7:56 AM 43.0 °F 36.0 °F 21.9 °F 43% 29.91 in 10.0 mi North 13.8 mph - N/A   Clear
8:56 AM 46.9 °F - 19.9 °F 34% 29.92 in 10.0 mi NNW 16.1 mph 24.2 mph N/A   Clear
9:56 AM 48.9 °F - 19.0 °F 31% 29.91 in 10.0 mi NNW 20.7 mph 27.6 mph N/A   Clear
10:56 AM 51.1 °F - 17.1 °F 26% 29.94 in 10.0 mi North 16.1 mph 28.8 mph N/A   Clear
11:56 AM 52.0 °F - 15.1 °F 23% 29.93 in 10.0 mi NNW 12.7 mph 26.5 mph N/A   Clear
12:56 PM 55.0 °F - 12.9 °F 19% 29.91 in 10.0 mi NNW 17.3 mph 28.8 mph N/A   Clear
1:56 PM 55.9 °F - 6.1 °F 14% 29.87 in 10.0 mi NNW 17.3 mph 28.8 mph N/A   Clear
2:56 PM 57.0 °F - 9.0 °F 15% 29.84 in 10.0 mi NNW 16.1 mph 27.6 mph N/A   Clear
3:56 PM 57.0 °F - 3.0 °F 11% 29.84 in 10.0 mi NNW 18.4 mph 26.5 mph N/A   Clear
4:56 PM 57.0 °F - 1.0 °F 10% 29.83 in 10.0 mi NNW 21.9 mph - N/A   Clear
5:56 PM 55.0 °F - 9.0 °F 16% 29.83 in 10.0 mi North 17.3 mph 27.6 mph N/A   Clear
6:56 PM 51.1 °F - 10.9 °F 20% 29.85 in 10.0 mi NNW 20.7 mph 28.8 mph N/A   Clear
7:56 PM 50.0 °F - 5.0 °F 16% 29.83 in 10.0 mi NNW 25.3 mph 34.5 mph N/A   Clear
8:56 PM 48.9 °F - -5.1 °F 11% 29.86 in 10.0 mi NNW 21.9 mph 31.1 mph N/A   Clear
9:56 PM 45.0 °F 38.2 °F 1.9 °F 17% 29.89 in 10.0 mi North 15.0 mph - N/A   Clear
10:56 PM 43.0 °F 34.0 °F 1.9 °F 18% 29.88 in 10.0 mi NNW 21.9 mph 27.6 mph N/A   Clear
11:56 PM 41.0 °F 32.5 °F -0.0 °F 18% 29.88 in 10.0 mi NNW 17.3 mph - N/A   Clear